Regional Weather Roundup
Issued by NWS Cleveland, OH

Home | Current Version | Previous Version | Text Only | Print | Product List | Glossary On
Versions: 1 2 3 4 5 6 7 8 9 10 11 12 13 14 15 16 17 18 19 20 21 22 23 24 25 26 27 28 29 30 31 32 33 34 35 36 37 38 39 40 41 42 43 44 45 46 47 48 49 50
000
ASUS41 KCLE 290512
RWRCLE
OHIO REGIONAL WEATHER ROUNDUP
NATIONAL WEATHER SERVICE WILMINGTON, OH
100 AM EDT WED MAR 29 2017

NOTE: "FAIR" INDICATES FEW OR NO CLOUDS BELOW 12,000 FEET WITH NO
SIGNIFICANT WEATHER AND/OR OBSTRUCTIONS TO VISIBILITY.

OHZ001>008-015>018-024>027-034-035-043-044-290600-
   NORTHWEST OHIO

CITY           SKY/WX    TMP DP  RH WIND       PRES   REMARKS
DEFIANCE       FAIR      39  36  89 N6        30.21S
FINDLAY        MOCLDY    43  36  76 NE12      30.19R
TOLEDO EXPRESS FAIR      37  36  96 E3        30.21S
TOLEDO EXEC    FAIR      37  35  92 E3        30.23R
LIMA           CLOUDY    45  40  82 N5        30.18S
$$

OHZ009>014-019>023-028>033-038-089-290600-
   NORTHEAST OHIO

CITY           SKY/WX    TMP DP  RH WIND       PRES   REMARKS
CLE-HOPKINS    DRIZZLE   39  34  82 N7        30.22S
CLE-LAKEFRONT  CLOUDY    38  35  89 NW5       30.20S
CUY CO. ARPT   NOT AVBL
LORAIN-ELYRIA  CLOUDY    37  32  82 NE8       30.20S
ASHTABULA      CLOUDY    39  37  92 NW6       30.18R
AKRON-CANTON   CLOUDY    42  38  85 N9        30.16R FOG
WOOSTER        CLOUDY    40  37  89 N7        30.18S
MANSFIELD      CLOUDY    37  34  89 N10       30.18R
YOUNGSTOWN     CLOUDY    41  39  93 NW9       30.15R
$$

OHZ042-051>053-060>062-070>072-077>081-290600-
  SOUTHWEST OHIO

CITY           SKY/WX    TMP DP  RH WIND       PRES   REMARKS
CINC-COVINGTON CLOUDY    52  47  83 NE10      30.13F
CINC-LUNKEN    CLOUDY    53  50  89 NE6       30.14F
HAMILTON       CLOUDY    52  47  83 NE8       30.16S
DAYTON         DRIZZLE   47  43  86 NE10      30.17S
WRIGHT-PAT AFB CLOUDY    48  45  91 NE9       30.16S
DAYTON GENERAL CLOUDY    49  44  83 NE8       30.15S
WILMINGTON     CLOUDY    46  43  89 NE12      30.15S
$$

OHZ036-037-039>041-045>050-054>059-063>069-073>076-082>088-290600-
  CENTRAL AND SOUTHEAST OHIO

CITY           SKY/WX    TMP DP  RH WIND       PRES   REMARKS
COLUMBUS       CLOUDY    46  40  79 NE6       30.17R
OSU AIRPORT    CLOUDY    44  39  82 N8        30.18R
BOLTON FIELD   CLOUDY    44  40  86 N9        30.17S
RICKENBACK AFB CLOUDY    45  41  86 N9        30.16S
NEWARK         FAIR      44  38  79 N5        30.16S
MARION         FAIR      39  35  86 NE8       30.19R
LANCASTER      CLOUDY    48  42  80 NE10      30.17R
ZANESVILLE     CLOUDY    45  39  79 N7        30.15S
NEW PHILLY     CLOUDY    44  39  82 NW6       30.16S
$$




USA.gov is the U.S. government's official web portal to all federal, state and local government web resources and services.